Dewpoint
1 0 1 -4 -4 -2 -0 0 0 -1 -2 -2 -2 -2 -3 -4 -4 -6 -7 -7 -2 2 2 5 6 7 8 8 8 6 3 8 10 10 10 10 10 10 9 10 10 10 9 8
4 3 0 -2 -4 -5 -5 -2 0 -1 -2 -2 -2 -2 -4 -4 -5 -6 -6 -7 -6 1 5 5 6 7 8 8 8 7 4 6 10 9 9 9 10 10 10 10 10 10 10 8
4 3 2 1 -0 -0 -2 -3 -1 0 -2 -2 -1 -1 -1 -3 -6 -6 -7 -7 -6 -4 4 5 6 6 8 8 7 7 4 5 9 9 9 9 9 9 10 10 10 10 10 8
5 4 4 5 4 2 2 -3 -1 -5 -3 2 -1 4 0 -1 -3 -5 -6 -4 -2 2 4 5 5 6 7 7 8 8 5 4 8 9 10 9 9 10 10 10 10 10 10 8
3 5 6 5 4 2 2 4 4 3 3 2 1 3 1 -3 -2 -4 -5 -6 -6 -3 1 5 5 6 7 7 7 8 6 4 6 9 10 9 9 9 9 9 9 9 10 9
2 3 3 3 3 2 2 4 4 4 3 5 1 2 3 1 -1 -3 -5 -6 -6 -6 1 4 7 7 7 8 8 8 6 5 7 8 9 10 9 9 9 8 8 9 9 9
-4 -1 2 3 4 3 4 7 7 6 6 5 2 3 1 -0 -2 -2 -3 -4 -5 -5 0 6 7 7 7 7 8 8 7 5 5 8 8 8 8 8 9 8 8 9 9 9
-2 -3 1 3 3 4 3 7 8 8 8 7 3 5 1 1 -1 -1 -3 -4 -5 -5 -2 3 4 6 6 7 7 8 7 6 5 7 7 8 8 7 8 9 8 9 9 9
-2 0 -3 3 2 4 7 7 6 8 8 8 6 3 1 1 1 2 -2 -5 -5 -3 2 5 6 6 6 6 7 7 7 7 5 5 6 8 8 8 7 8 9 9 9 9
-3 1 -3 -1 2 3 6 6 8 9 10 9 6 7 9 5 3 4 4 4 4 6 7 7 6 6 7 7 7 8 8 8 7 6 6 7 8 8 8 8 8 8 9 9
1 -0 -1 -1 3 5 7 8 7 8 8 9 9 10 7 8 6 4 4 5 5 7 8 8 8 8 8 8 8 9 9 9 9 8 8 7 7 8 8 8 7 8 8 8
0 4 6 4 -1 1 4 6 7 9 9 8 10 9 7 7 5 3 4 5 5 7 8 9 9 9 9 9 9 9 9 9 9 9 8 7 7 8 8 8 8 7 7 7
-2 3 6 3 1 3 5 6 6 7 7 8 9 8 7 6 5 4 4 4 5 6 7 7 9 10 10 10 10 10 10 10 10 10 9 9 8 7 7 8 8 8 8 8
-2 2 4 5 6 5 7 5 6 7 9 8 8 9 8 7 7 5 6 4 5 5 4 4 4 5 8 9 9 9 10 9 9 10 10 10 10 9 8 8 8 7 7 8
-1 1 4 3 3 3 4 5 6 8 7 9 5 5 6 7 7 6 6 3 4 3 2 0 -0 1 2 3 4 4 5 8 9 9 9 9 9 10 10 9 9 8 8 8
2 2 3 3 3 1 0 0 4 6 6 7 6 5 6 6 6 6 7 4 4 3 1 -0 -2 -2 -2 -2 -0 1 2 4 6 8 9 9 9 9 9 9 9 9 9 9
2 3 3 3 2 1 3 3 1 5 5 5 8 6 7 7 6 6 6 5 4 2 1 -0 -1 -1 -1 -1 -2 -3 -3 -1 0 2 3 5 7 8 9 9 9 9 9 9
1 1 2 3 2 2 -2 -5 1 3 5 5 6 6 6 5 6 5 5 4 3 2 0 0 0 -1 -1 -1 -2 -2 -3 -4 -4 -4 -3 -1 0 2 4 7 8 8 8 8
-0 0 1 1 3 -0 -2 1 2 3 4 4 4 5 5 5 2 2 1 2 2 1 -0 -1 -1 -1 -2 -2 -2 -2 -2 -3 -3 -4 -4 -4 -3 -2 -0 0 2 4 6 7
1 -1 0 2 2 2 -2 -0 -1 1 6 4 3 5 5 3 5 2 0 0 -0 -1 -1 -1 -1 -1 -1 -1 -2 -2 -2 -2 -3 -3 -3 -3 -2 -2 -1 -1 -0 1 1 2
1 1 3 2 2 1 -1 2 0 5 6 3 3 6 4 3 2 -1 -1 -1 -1 -1 -1 -1 -2 -2 -2 -2 -3 -3 -3 -3 -3 -3 -3 -3 -3 -3 -2 -1 -0 1 2 3
1 2 2 2 2 2 1 3 2 4 3 2 2 1 -0 -1 -1 -2 -3 -3 -2 -2 -2 -3 -3 -3 -3 -3 -3 -3 -3 -4 -3 -4 -4 -4 -4 -4 -3 -2 -1 1 1 2
1 3 2 1 1 1 0 1 3 3 3 3 2 1 -0 -1 -2 -3 -4 -4 -4 -4 -4 -4 -4 -4 -4 -4 -4 -4 -5 -5 -5 -5 -5 -5 -5 -5 -4 -3 -2 -1 0 0
3 3 4 4 3 2 0 -0 -1 -0 -1 1 2 1 1 -0 -2 -3 -4 -5 -5 -5 -5 -4 -5 -5 -5 -5 -5 -5 -6 -6 -6 -6 -6 -6 -6 -6 -6 -6 -6 -5 -5 -4
3 2 2 4 3 2 2 1 0 -1 -1 -1 -2 -2 -3 -3 -4 -5 -6 -5 -5 -5 -5 -5 -6 -6 -6 -6 -6 -6 -6 -6 -6 -7 -7 -7 -7 -7 -8 -8 -8 -8 -8 -7
0 0 1 3 1 1 -0 -0 -0 -0 -1 -3 -3 -4 -4 -4 -5 -6 -6 -6 -6 -7 -7 -7 -7 -7 -7 -7 -7 -7 -7 -7 -7 -7 -8 -8 -8 -8 -8 -8 -9 -9 -9 -9
Wind_Speed
1 2 8 8 6 4 7 5 7 4 5 4 8 11 12 12 12 12 27 21 32 41 43 38 34 30 27 24 19 14 15 18 19 19 20 20 22 20 22 25 31 31 29 34
2 6 8 5 6 7 8 11 12 11 11 4 9 13 14 14 13 16 20 24 31 37 36 37 36 33 32 26 21 16 16 19 23 20 21 23 23 23 23 25 33 34 33 38
5 4 2 6 8 9 11 10 9 10 5 8 11 13 8 13 6 15 16 24 29 35 40 40 39 37 34 31 24 19 17 20 23 24 26 24 22 21 24 29 32 36 35 37
5 4 4 6 5 7 12 7 10 8 6 4 1 5 6 11 8 4 13 15 25 32 36 42 42 39 38 33 26 20 18 22 24 26 28 29 29 29 28 29 33 39 38 39
6 4 4 5 6 7 7 5 6 3 3 3 4 3 7 2 7 8 7 15 21 32 40 44 47 43 40 34 28 23 20 21 23 26 30 30 29 31 32 34 32 36 45 42
6 4 4 7 5 6 5 9 10 5 3 6 8 6 5 6 6 5 6 15 15 18 37 45 43 43 39 33 29 26 23 21 23 24 27 28 28 28 28 27 32 32 37 46
4 11 5 4 3 6 9 4 3 5 4 6 7 8 11 9 9 8 11 20 20 15 28 38 44 44 40 36 32 29 26 23 23 24 24 23 19 21 22 22 26 28 32 44
3 5 9 7 12 5 13 6 3 4 3 2 5 5 3 6 7 17 24 30 33 20 29 44 49 45 42 39 35 31 27 24 22 22 21 19 19 20 21 21 23 26 29 33
3 4 2 6 5 7 4 11 2 1 4 2 3 5 2 17 17 19 14 19 24 18 34 43 45 43 42 39 35 31 27 25 22 21 20 22 20 22 19 20 24 25 26 37
2 4 2 3 6 6 4 3 4 2 3 3 4 2 3 13 16 16 15 9 4 12 21 30 38 39 39 37 33 29 25 23 20 20 20 21 21 25 22 21 22 26 29 43
3 2 6 4 5 7 3 3 2 2 2 2 1 2 1 10 12 11 12 19 20 13 15 19 20 25 30 31 29 27 24 21 20 19 19 20 22 24 24 24 25 29 32 37
1 2 3 7 7 11 10 7 4 2 4 2 1 3 4 9 13 10 15 23 30 27 24 20 18 13 9 9 15 18 19 20 19 16 18 19 20 22 25 27 28 31 37 35
3 1 3 7 4 5 3 10 9 6 1 4 3 2 5 7 12 21 18 23 28 30 34 36 32 26 20 14 11 7 6 9 14 18 19 19 19 22 23 26 29 32 36 40
3 2 2 2 3 2 6 11 7 8 2 2 4 0 3 5 10 14 21 18 26 29 31 34 36 34 28 23 19 16 12 7 10 15 17 19 19 20 22 24 27 28 30 35
3 2 1 6 7 8 11 12 11 8 6 4 3 8 9 10 6 8 15 12 22 26 28 31 30 28 27 24 18 15 12 8 7 6 9 16 17 20 23 26 27 30 32 32
2 1 2 4 4 8 10 11 11 13 11 11 16 12 5 13 13 6 8 12 20 18 25 25 27 25 25 22 20 16 12 9 6 7 4 3 11 18 21 23 25 29 33 37
2 3 2 4 6 10 7 0 6 5 11 6 11 8 8 14 14 15 16 13 15 15 16 18 21 18 18 19 18 18 15 11 7 5 2 2 5 9 12 16 24 26 31 31
4 4 3 3 4 3 5 12 8 5 5 8 9 9 8 7 21 15 23 20 17 14 11 14 17 13 14 14 14 14 12 11 10 8 8 7 6 7 10 13 16 19 25 29
7 4 2 2 3 6 11 3 3 8 8 2 6 6 9 25 30 20 16 19 17 14 13 12 11 10 8 11 12 10 9 9 11 13 13 13 12 12 12 12 12 16 21 25
5 3 3 1 2 3 4 8 4 6 6 3 5 6 17 22 8 4 11 14 14 13 12 10 10 10 10 10 9 7 9 10 12 13 14 16 18 18 17 15 15 16 17 21
3 2 8 6 3 6 5 12 12 3 5 13 10 22 28 7 7 21 15 13 12 9 9 9 9 11 11 10 10 9 10 12 13 13 13 14 15 16 18 19 19 17 16 17
5 4 3 3 4 7 15 11 3 4 17 15 21 23 30 29 27 19 15 14 12 11 9 10 10 13 13 13 12 13 13 13 11 10 11 12 14 14 15 15 15 16 15 14
1 1 2 5 2 5 10 10 13 11 20 10 22 17 30 24 19 13 13 11 13 13 13 12 12 13 14 14 14 14 15 14 12 12 13 15 16 16 17 16 16 14 13 14
2 3 1 1 8 9 12 19 23 21 24 19 16 14 15 21 16 14 11 10 12 13 12 12 12 14 15 16 15 15 14 13 13 15 16 18 20 22 23 24 25 22 20 17
3 2 3 1 9 14 12 13 18 18 20 18 15 14 14 16 14 11 10 10 11 12 12 12 14 15 16 15 15 15 14 13 13 15 16 18 20 23 26 26 28 28 26 22
5 3 2 2 6 9 8 8 10 17 17 14 12 13 12 11 12 9 12 11 12 14 13 14 15 15 16 15 16 16 14 13 14 16 17 18 19 21 22 24 25 25 24 24
Wind_Direction
161 161 221 221 215 250 257 253 259 256 265 296 259 269 275 292 275 260 255 243 212 219 226 218 216 211 207 209 212 217 218 210 194 203 209 207 201 205 206 200 194 186 198 197
17 240 243 238 239 261 274 265 266 274 274 258 281 282 287 285 261 246 261 250 226 218 218 217 213 208 208 209 213 213 215 212 201 201 206 208 202 206 203 206 203 206 209 204
188 220 335 229 230 241 252 254 253 260 298 268 279 280 285 276 252 294 293 260 241 223 212 210 207 208 207 209 213 214 214 212 207 204 208 212 212 207 209 214 215 217 219 210
241 249 247 259 246 226 249 235 266 270 278 254 93 286 260 281 290 281 276 237 227 213 215 210 208 208 210 210 211 214 213 210 210 207 209 212 213 217 217 223 222 218 219 214
244 194 209 217 231 232 261 359 289 279 270 220 255 253 270 231 289 280 247 256 234 223 220 212 213 214 210 208 209 212 212 210 211 210 212 214 221 225 228 228 225 222 212 210
241 220 213 209 217 227 268 299 279 250 215 245 224 206 235 227 229 273 258 252 217 223 222 218 212 210 208 205 208 211 211 210 211 209 217 220 227 233 232 231 229 224 220 211
279 238 214 165 188 186 218 266 242 224 228 234 195 208 254 303 282 257 272 280 272 234 215 209 209 207 205 204 207 210 210 210 211 211 214 216 228 228 226 224 216 215 215 217
214 319 164 190 204 184 202 201 223 220 231 182 264 248 214 358 347 320 265 265 275 251 227 212 211 208 205 204 206 210 212 212 214 212 212 213 211 218 235 227 217 217 218 212
206 255 143 174 145 135 175 210 357 317 316 25 243 270 206 0 360 352 303 267 273 266 201 201 204 206 204 205 209 211 213 214 215 218 211 212 217 217 221 230 229 223 219 210
230 295 278 196 119 166 167 137 179 180 224 215 231 98 12 2 357 358 355 350 327 185 176 185 198 201 203 205 207 208 213 219 221 221 223 221 223 220 221 225 228 230 213 207
207 170 288 127 188 173 204 180 186 227 228 229 179 166 36 4 3 359 3 29 57 124 152 166 171 194 197 201 204 205 209 217 224 228 232 231 230 230 227 225 224 222 220 218
156 84 277 245 238 184 186 196 176 211 173 191 46 266 57 5 10 6 30 36 56 82 111 121 129 143 160 187 214 218 215 223 229 233 235 244 241 236 232 232 228 226 224 225
173 124 319 317 36 43 151 181 195 214 52 231 177 235 14 13 3 20 29 44 58 66 75 91 103 104 114 120 130 156 192 233 247 248 247 247 248 245 242 237 236 237 236 242
75 85 116 241 292 245 314 341 274 212 196 172 219 227 87 322 348 4 4 49 64 63 67 78 87 90 99 104 116 129 141 178 233 249 251 256 258 259 257 254 249 247 245 245
84 124 353 280 278 278 267 254 256 262 247 232 267 226 196 177 142 337 356 48 70 68 67 72 74 79 87 94 97 102 105 100 68 136 210 245 268 273 269 263 261 259 259 259
23 140 42 280 316 330 291 250 243 219 247 274 255 268 132 141 135 150 20 56 57 50 68 65 64 65 71 75 75 76 77 74 85 103 120 223 239 242 256 272 278 273 268 265
108 116 70 279 341 326 297 359 294 211 194 174 245 254 143 166 155 154 116 104 84 64 67 69 68 58 58 60 60 58 53 54 55 53 58 199 231 242 250 254 253 255 266 275
149 150 146 252 346 269 259 318 36 317 208 188 196 215 170 163 105 99 136 130 112 106 90 76 71 47 47 54 52 43 34 26 33 27 17 1 330 292 265 255 257 259 256 255
201 141 182 183 196 291 302 348 63 14 286 213 273 206 200 123 96 72 81 114 116 112 90 80 74 73 64 51 44 31 26 22 11 8 6 357 349 338 327 309 282 267 263 264
120 105 139 146 220 253 243 348 321 44 273 343 278 181 137 150 146 121 121 117 119 115 103 96 78 62 57 55 46 30 27 21 16 8 360 348 344 340 334 327 316 310 300 288
119 148 210 215 240 280 295 325 322 104 298 337 268 161 158 146 122 138 138 121 111 103 87 81 74 65 56 46 37 28 27 24 19 8 359 350 345 341 338 337 333 328 323 316
180 168 193 168 211 254 353 319 228 131 52 36 69 107 103 108 116 121 123 119 118 110 93 77 63 56 51 44 38 36 35 34 31 26 17 14 10 6 359 352 345 337 334 342
27 229 240 184 195 51 26 48 67 109 103 80 83 90 109 108 107 117 112 116 107 103 94 78 63 55 51 46 44 43 43 39 41 41 43 42 38 38 36 31 25 17 11 7
243 153 205 238 139 96 59 64 76 82 69 75 102 117 122 126 133 125 125 105 94 91 86 75 63 55 49 45 47 52 51 46 48 52 53 53 53 54 53 53 50 49 48 46
342 332 9 4 122 100 71 72 88 77 80 83 93 96 102 121 118 119 104 93 86 77 73 72 67 63 58 51 51 57 57 55 60 63 66 66 63 63 61 61 60 58 59 54
358 355 347 28 13 78 72 55 90 97 91 91 88 94 103 111 109 101 92 86 82 78 73 73 75 73 68 63 60 58 63 68 78 82 79 79 79 77 77 79 80 79 80 78
Height
1443 1449 1449 1446 1445 1444 1442 1441 1441 1434 1427 1431 1429 1425 1414 1410 1409 1406 1407 1404 1410 1412 1410 1415 1420 1425 1429 1432 1434 1435 1436 1437 1440 1444 1447 1450 1453 1456 1459 1463 1466 1470 1475 1481
1445 1446 1442 1441 1442 1443 1442 1440 1434 1427 1424 1425 1425 1421 1408 1404 1404 1401 1397 1395 1400 1404 1408 1410 1415 1421 1423 1427 1430 1433 1434 1436 1439 1442 1445 1448 1452 1455 1459 1463 1468 1471 1474 1479
1445 1439 1437 1438 1438 1440 1439 1439 1434 1431 1427 1424 1423 1416 1406 1395 1395 1393 1390 1389 1391 1393 1398 1404 1408 1414 1419 1423 1426 1430 1433 1435 1437 1440 1443 1447 1451 1455 1458 1461 1465 1469 1472 1478
1443 1436 1436 1437 1437 1435 1437 1431 1429 1427 1431 1438 1418 1431 1407 1397 1392 1387 1387 1388 1387 1390 1393 1397 1402 1408 1413 1417 1424 1428 1431 1433 1435 1437 1441 1444 1448 1451 1454 1457 1461 1465 1469 1475
1438 1436 1437 1437 1433 1430 1430 1428 1429 1426 1428 1428 1422 1429 1404 1393 1393 1387 1385 1385 1386 1386 1387 1391 1395 1401 1408 1414 1420 1425 1429 1431 1432 1434 1438 1442 1445 1449 1451 1454 1458 1463 1464 1472
1434 1431 1431 1429 1426 1426 1429 1430 1428 1426 1428 1434 1419 1421 1405 1395 1388 1380 1378 1379 1379 1379 1383 1387 1393 1398 1405 1413 1418 1422 1425 1428 1431 1433 1435 1439 1442 1446 1448 1452 1454 1458 1462 1468
1431 1426 1424 1425 1427 1426 1430 1438 1437 1436 1435 1423 1405 1412 1394 1387 1383 1379 1375 1372 1374 1375 1379 1384 1386 1392 1400 1408 1413 1418 1422 1425 1428 1431 1434 1438 1440 1443 1446 1449 1451 1455 1459 1463
1434 1431 1422 1418 1421 1424 1424 1434 1433 1427 1422 1419 1404 1406 1392 1381 1378 1374 1368 1365 1364 1369 1371 1373 1378 1386 1395 1403 1409 1415 1419 1422 1426 1429 1432 1436 1439 1441 1444 1447 1450 1454 1458 1462
1431 1423 1413 1414 1414 1421 1427 1429 1431 1428 1424 1426 1411 1392 1379 1380 1378 1373 1366 1361 1358 1358 1361 1366 1374 1383 1391 1399 1406 1411 1416 1420 1423 1426 1430 1434 1437 1440 1441 1444 1449 1452 1457 1461
1421 1425 1412 1410 1416 1422 1427 1425 1429 1427 1422 1424 1404 1398 1406 1394 1388 1383 1376 1367 1360 1361 1366 1370 1375 1383 1391 1399 1405 1412 1418 1422 1425 1428 1432 1434 1436 1439 1442 1444 1447 1450 1455 1459
1420 1420 1419 1412 1416 1416 1426 1422 1426 1422 1420 1416 1413 1410 1401 1402 1396 1391 1386 1375 1365 1366 1373 1377 1381 1387 1393 1399 1406 1411 1417 1422 1426 1429 1432 1435 1437 1439 1441 1444 1447 1450 1454 1459
1422 1423 1426 1416 1404 1404 1409 1417 1420 1419 1419 1417 1416 1411 1401 1402 1398 1395 1391 1385 1375 1375 1377 1384 1388 1392 1398 1404 1410 1413 1418 1421 1424 1427 1430 1431 1434 1437 1440 1443 1446 1450 1453 1457
1419 1424 1428 1414 1407 1406 1412 1414 1418 1418 1417 1413 1415 1409 1402 1402 1402 1401 1397 1395 1391 1389 1388 1388 1389 1393 1400 1407 1410 1413 1417 1420 1423 1424 1426 1429 1432 1434 1437 1440 1444 1447 1451 1454
1417 1424 1428 1433 1425 1424 1421 1417 1411 1413 1415 1413 1412 1403 1404 1406 1408 1408 1406 1406 1402 1399 1398 1398 1397 1401 1404 1407 1410 1412 1414 1417 1418 1420 1423 1425 1428 1430 1433 1435 1438 1441 1444 1446
1422 1427 1428 1426 1423 1421 1418 1416 1413 1415 1413 1413 1403 1402 1397 1406 1412 1415 1414 1412 1407 1407 1407 1407 1407 1408 1407 1408 1413 1414 1415 1416 1415 1416 1419 1422 1424 1426 1428 1429 1432 1434 1435 1437
1424 1431 1431 1429 1419 1419 1415 1408 1404 1406 1409 1411 1407 1401 1397 1405 1410 1415 1418 1415 1412 1414 1410 1410 1410 1413 1412 1413 1413 1415 1415 1416 1415 1416 1417 1418 1419 1421 1423 1425 1426 1427 1428 1428
1426 1430 1434 1429 1424 1422 1416 1403 1399 1396 1401 1401 1403 1397 1399 1404 1405 1412 1419 1419 1420 1421 1418 1418 1418 1421 1418 1415 1415 1414 1415 1416 1416 1415 1415 1416 1416 1416 1417 1418 1419 1421 1422 1423
1428 1431 1437 1437 1429 1432 1403 1397 1394 1392 1391 1394 1395 1397 1400 1403 1405 1415 1417 1420 1423 1425 1426 1423 1420 1423 1419 1416 1415 1415 1416 1417 1416 1415 1413 1413 1412 1412 1412 1413 1413 1413 1413 1413
1421 1427 1435 1438 1436 1421 1405 1396 1395 1399 1396 1394 1395 1396 1399 1405 1408 1421 1422 1421 1422 1426 1426 1425 1424 1424 1420 1417 1417 1419 1418 1418 1415 1412 1410 1411 1410 1408 1406 1406 1406 1405 1405 1406
1421 1424 1431 1438 1431 1431 1404 1398 1393 1394 1397 1394 1392 1393 1396 1400 1407 1423 1425 1424 1426 1426 1426 1427 1425 1424 1421 1420 1421 1421 1418 1415 1413 1411 1408 1407 1405 1403 1402 1401 1399 1397 1396 1396
1426 1431 1429 1430 1433 1421 1402 1401 1397 1404 1404 1395 1389 1391 1396 1401 1408 1419 1423 1424 1423 1425 1425 1426 1425 1424 1423 1423 1421 1420 1417 1414 1412 1409 1408 1407 1404 1401 1398 1395 1392 1391 1391 1390
1420 1425 1430 1428 1426 1426 1407 1400 1399 1401 1400 1401 1396 1397 1400 1408 1415 1422 1426 1426 1427 1426 1426 1425 1425 1424 1422 1421 1421 1419 1417 1415 1412 1411 1410 1407 1404 1401 1397 1394 1391 1388 1387 1385
1427 1419 1418 1416 1416 1416 1413 1409 1401 1402 1399 1407 1404 1409 1406 1413 1419 1424 1426 1428 1428 1426 1426 1425 1424 1423 1423 1422 1420 1417 1416 1415 1413 1411 1409 1406 1405 1400 1396 1393 1390 1388 1386 1383
1413 1412 1412 1412 1414 1416 1416 1413 1409 1409 1409 1411 1413 1411 1412 1414 1420 1423 1427 1429 1426 1426 1425 1424 1424 1423 1422 1420 1419 1417 1416 1416 1414 1411 1409 1407 1403 1400 1397 1394 1392 1390 1388 1386
1418 1415 1417 1414 1415 1416 1418 1418 1414 1415 1414 1417 1419 1420 1422 1422 1424 1427 1428 1428 1427 1426 1425 1424 1424 1425 1424 1423 1421 1420 1419 1417 1416 1414 1413 1409 1407 1403 1400 1398 1397 1395 1393 1392
1423 1424 1419 1416 1420 1417 1421 1421 1421 1418 1420 1423 1426 1427 1427 1428 1428 1428 1428 1428 1428 1427 1428 1427 1428 1426 1426 1425 1425 1425 1424 1423 1422 1420 1416 1413 1411 1408 1406 1405 1404 1402 1401 1399